Weather History for Monroe, NC

Change the Weather History Date:

Tuesday, September 17, 2013

  Actual Average (KCLT) Record (KCLT)
Temperature  
Mean Temperature 70 °F 70 °F  
Max Temperature 78 °F 81 °F 96 °F (1954)
Min Temperature 61 °F 60 °F 46 °F (1984)
Degree Days  
Heating Degree Days 0 1  
Month to date heating degree days 2  
Since 1 July heating degree days 2  
Cooling Degree Days 5 6  
Month to date cooling degree days 141  
Year to date cooling degree days 1418  
Growing Degree Days 20 (Base 50)    
Moisture  
Dew Point 55 °F    
Average Humidity 60    
Maximum Humidity 75    
Minimum Humidity 42    
Precipitation  
Precipitation 0.00 in 0.11 in 3.14 in (1945)
Month to date precipitation 1.82  
Year to date precipitation 30.42  
Snow  
Snow 0.00 in 0.00 in 0.00 in ()
Month to date snowfall 0.0  
Since 1 July snowfall 0.0  
Since 1 September snowfall 0.0  
Snow Depth -    
Sea Level Pressure  
Sea Level Pressure 30.24 in    
Wind  
Wind Speed 9 mph (NE)    
Max Wind Speed 15 mph    
Max Gust Speed 23 mph    
Visibility 10 miles    
Events      
T = Trace of Precipitation, MM = Missing Value Source: NWS Daily Summary

Daily Weather History Graph

Daily Weather History Graph

Search for Another Location

Airport:

Trip Planner

Search our weather history database for the weather conditions in past years. The results will help you decide how hot, cold, wet, or windy it might be!

Date:

Astronomy

Sep. 17, 2013 Rise Set
Actual Time 7:07 AM EDT 7:26 PM EDT
Civil Twilight 6:41 AM EDT 7:51 PM EDT
Nautical Twilight 6:11 AM EDT 8:21 PM EDT
Astronomical Twilight 5:41 AM EDT 8:51 PM EDT
Moon 6:10 PM EDT (9/17) 5:03 AM EDT (9/17)
Length of Visible Light 13h 09m
Length of Day
12h 19m
Waxing Gibbous, 96% of the Moon is Illuminated
Sep 17
Waxing Gibbous
Sep 19
Full
Sep 26
Last Quarter
Oct 4
New
Oct 11
First Quarter

Hourly Weather History & Observations

Time (EDT) Temp. Dew Point Humidity Pressure Visibility Wind Dir Wind Speed Gust Speed Precip Events Conditions
12:53 AM 73.0 °F 62.1 °F 68% 30.17 in 10.0 mi ENE 4.6 mph - N/A   Overcast
1:53 AM 72.0 °F 60.1 °F 66% 30.18 in 10.0 mi NE 11.5 mph - N/A   Overcast
2:43 AM 69.8 °F 60.8 °F 73% 30.19 in 10.0 mi ENE 12.7 mph 20.7 mph N/A   Overcast
2:53 AM 69.1 °F 57.9 °F 68% 30.19 in 10.0 mi NE 15.0 mph 19.6 mph N/A   Overcast
3:01 AM 69.8 °F 55.4 °F 60% 30.19 in 10.0 mi NE 15.0 mph 23.0 mph N/A   Overcast
3:53 AM 68.0 °F 57.0 °F 68% 30.20 in 10.0 mi NE 12.7 mph - N/A   Overcast
4:53 AM 66.9 °F 57.0 °F 70% 30.21 in 10.0 mi NE 10.4 mph - N/A   Overcast
5:53 AM 66.0 °F 55.0 °F 68% 30.22 in 10.0 mi NE 10.4 mph - N/A   Overcast
6:53 AM 64.9 °F 55.0 °F 70% 30.24 in 10.0 mi NE 12.7 mph - N/A   Overcast
7:53 AM 64.9 °F 54.0 °F 68% 30.27 in 10.0 mi NE 13.8 mph - N/A   Overcast
8:53 AM 66.0 °F 55.0 °F 68% 30.29 in 10.0 mi NE 10.4 mph - N/A   Overcast
9:53 AM 68.0 °F 55.9 °F 65% 30.30 in 10.0 mi ENE 8.1 mph 17.3 mph N/A   Overcast
10:53 AM 71.1 °F 55.0 °F 57% 30.31 in 10.0 mi ENE 10.4 mph 17.3 mph N/A   Clear
11:53 AM 71.1 °F 54.0 °F 55% 30.32 in 10.0 mi East 8.1 mph 16.1 mph N/A   Overcast
12:53 PM 73.9 °F 55.0 °F 52% 30.30 in 10.0 mi ENE 5.8 mph - N/A   Overcast
1:53 PM 75.9 °F 52.0 °F 43% 30.27 in 10.0 mi NE 8.1 mph 19.6 mph N/A   Mostly Cloudy
2:53 PM 77.0 °F 53.1 °F 43% 30.26 in 10.0 mi NE 11.5 mph 18.4 mph N/A   Partly Cloudy
3:53 PM 77.0 °F 53.1 °F 43% 30.23 in 10.0 mi NE 8.1 mph 17.3 mph N/A   Clear
4:53 PM 77.0 °F 52.0 °F 42% 30.22 in 10.0 mi ENE 5.8 mph - N/A   Clear
5:53 PM 75.9 °F 52.0 °F 43% 30.22 in 10.0 mi ENE 6.9 mph - N/A   Scattered Clouds
6:53 PM 72.0 °F 53.1 °F 51% 30.23 in 10.0 mi ENE 5.8 mph - N/A   Mostly Cloudy
7:53 PM 70.0 °F 53.1 °F 55% 30.23 in 10.0 mi NE 5.8 mph - N/A   Overcast
8:53 PM 68.0 °F 53.1 °F 59% 30.25 in 10.0 mi NE 6.9 mph - N/A   Overcast
9:53 PM 66.9 °F 53.1 °F 61% 30.27 in 10.0 mi NE 8.1 mph - N/A   Overcast
10:53 PM 63.0 °F 53.1 °F 70% 30.27 in 10.0 mi NE 5.8 mph - N/A   Scattered Clouds
11:53 PM 61.0 °F 53.1 °F 75% 30.28 in 10.0 mi NE 4.6 mph - N/A   Partly Cloudy